Date,TemperatureHighF,TemperatureAvgF,TemperatureLowF,DewpointHighF,DewpointAvgF,DewpointLowF,HumidityHigh,HumidityAvg,HumidityLow,PressureMaxIn,PressureMinIn,WindSpeedMaxMPH,WindSpeedAvgMPH,GustSpeedMaxMPH,PrecipitationSumIn
2014-1-1,16.1,11.7,7.7,12.0,0.4,-99.9,92,76,68,30.32,30.16,6,-72,13,0.03
2014-1-2,13.3,8.9,4.7,11.0,-1.9,-99.9,92,82,87,30.23,29.75,6,-84,12,0.00
2014-1-3,3.9,-2.4,-10.0,1.0,-13.8,-99.9,89,78,81,30.41,29.73,13,-80,20,0.00
2014-1-4,30.2,14.5,-8.4,15.0,-2.9,-99.9,87,59,26,30.42,30.20,9,-49,18,0.02
2014-1-5,42.9,32.7,21.7,43.0,15.2,-99.9,99,60,23,30.21,29.68,14,-49,32,0.39
2014-1-6,46.6,27.0,5.2,46.0,12.8,-99.9,99,78,71,29.68,29.25,16,-110,25,0.90
2014-1-7,3.0,-3.0,-6.2,0.0,-18.0,-99.9,86,63,53,30.23,29.47,12,-71,22,0.00
2014-1-8,13.6,4.8,-3.3,3.0,-8.2,-99.9,82,66,56,30.46,30.23,12,-52,16,0.00
2014-1-9,21.8,11.0,6.3,10.0,-1.7,-99.9,88,73,58,30.60,30.42,12,-76,17,0.00
2014-1-10,40.6,28.9,17.9,38.0,18.7,-99.9,96,79,66,30.50,30.14,7,-63,17,0.01
2014-1-11,52.9,41.1,38.2,52.0,28.4,-99.9,99,84,81,30.14,29.20,17,-110,27,0.13
2014-1-12,39.5,21.9,26.5,36.0,-9.5,-99.9,90,60,76,29.95,29.25,15,-278,25,0.13
2014-1-13,46.9,34.3,24.4,33.0,16.7,-99.9,88,62,35,30.02,29.76,11,-72,16,0.01
2014-1-14,43.6,33.1,31.3,39.0,18.2,-99.9,98,80,74,29.75,29.59,11,-126,14,0.04
2014-1-15,42.5,31.3,23.4,35.0,21.1,-99.9,98,82,68,29.88,29.74,11,-71,19,0.04
2014-1-16,30.7,22.1,20.4,29.0,12.0,-99.9,96,84,88,29.87,29.79,9,-82,11,0.00
2014-1-17,35.2,23.7,16.8,25.0,13.5,-99.9,94,78,58,29.88,29.84,9,-54,11,0.07
2014-1-18,28.1,21.0,16.7,26.0,11.3,-99.9,95,83,80,29.83,29.59,15,-70,20,0.00
2014-1-19,25.0,19.6,15.7,20.0,9.9,-99.9,94,78,67,29.72,29.50,18,-50,23,0.00
2014-1-20,30.5,21.4,9.8,25.0,12.0,-99.9,93,79,76,29.81,29.47,9,-48,19,0.00
2014-1-21,9.6,3.3,-3.3,6.0,-7.3,-99.9,87,73,64,29.95,29.81,10,-49,17,0.00
2014-1-22,6.3,-2.0,-7.6,-5.0,-15.6,-99.9,85,66,58,29.97,29.77,13,-63,21,0.00
2014-1-23,7.4,0.3,-6.6,-2.0,-10.3,-99.9,85,73,62,30.19,29.97,9,-49,17,0.00
2014-1-24,10.9,3.2,-4.3,-2.0,-10.7,-99.9,85,64,44,30.26,29.92,12,-50,19,0.00
2014-1-25,15.2,10.7,6.8,12.0,0.3,-99.9,90,75,54,29.90,29.33,7,-50,13,0.00
2014-1-26,19.0,7.5,-0.4,12.0,-4.0,-99.9,90,69,51,29.75,29.36,11,-39,18,0.01
2014-1-27,38.0,18.1,2.6,30.0,1.7,-99.9,90,60,40,29.93,29.50,14,-58,30,0.02
2014-1-28,8.0,2.5,-4.3,-5.0,-13.6,-99.9,72,55,42,30.25,29.93,7,-40,17,0.00
2014-1-29,14.9,6.4,-3.4,-6.0,-13.9,-99.9,71,47,31,30.19,29.97,11,-40,18,0.00
2014-1-30,25.4,12.1,-1.1,4.0,-3.9,-99.9,80,55,38,30.37,30.05,9,-29,18,0.04
2014-1-31,29.8,24.8,18.4,21.0,8.0,-99.9,80,56,27,30.16,29.96,12,-29,16,0.00
2014-2-1,37.0,28.0,20.7,28.0,16.6,-99.9,85,71,59,30.24,29.93,11,-39,16,0.04
2014-2-2,41.9,33.2,25.1,34.0,24.2,-99.9,96,79,54,30.02,29.81,11,-39,17,0.13
2014-2-3,24.9,17.5,7.1,22.0,9.2,-99.9,93,85,85,30.26,30.02,9,-60,14,0.00
2014-2-4,23.6,14.9,6.0,17.0,10.6,-99.9,93,86,71,30.43,30.23,6,-9,9,0.10
2014-2-5,22.9,18.3,16.0,22.0,11.1,-99.9,94,87,81,30.26,29.62,7,-51,13,0.00
2014-2-6,19.8,11.3,3.8,16.0,4.4,-99.9,94,79,58,30.21,29.92,9,-19,14,0.06
2014-2-7,23.9,14.2,5.1,8.0,4.6,0.0,87,67,43,30.21,30.13,11,2,15,0.01
2014-2-8,21.6,11.6,0.7,5.0,-4.8,-99.9,75,54,33,30.24,30.10,10,-30,15,0.00
2014-2-9,21.4,12.3,1.7,13.0,5.0,-99.9,91,78,59,30.11,29.89,8,-19,14,0.00
2014-2-10,14.9,9.6,1.8,11.0,2.7,-99.9,90,79,63,30.18,29.89,11,-18,17,0.00
2014-2-11,12.8,5.6,-1.7,3.0,0.2,-5.0,89,79,63,30.44,30.18,13,3,20,0.00
2014-2-12,20.4,8.3,-5.6,13.0,-2.9,-9.0,90,64,30,30.51,30.29,8,3,14,0.00
2014-2-13,25.3,21.9,16.2,24.0,17.8,-99.9,96,92,90,30.29,29.10,12,-25,19,0.00
2014-2-14,26.2,21.8,16.7,24.0,15.9,-99.9,96,89,87,29.71,29.00,21,-36,26,0.00
2014-2-15,24.8,20.7,15.2,23.0,18.9,13.0,95,93,87,29.73,29.61,17,3,28,0.00
2014-2-16,16.0,11.4,7.1,13.0,8.0,3.0,92,86,76,30.02,29.62,18,6,30,0.00
2014-2-17,21.4,10.0,0.1,4.0,-0.8,-6.0,88,63,37,30.35,30.03,13,3,24,0.01
2014-2-18,27.0,19.9,14.4,24.0,14.9,1.0,94,82,47,30.26,29.89,17,3,20,0.00
2014-2-19,35.5,29.3,14.9,35.0,26.4,13.0,98,89,65,30.02,29.63,14,3,23,0.00
2014-2-20,44.3,31.6,19.2,30.0,24.5,17.0,95,78,35,30.14,29.93,12,3,24,0.09
2014-2-21,41.6,34.1,31.5,41.0,27.0,-99.9,99,88,67,29.93,29.59,15,-50,18,0.04
2014-2-22,44.1,38.1,31.0,23.0,17.8,13.0,66,45,32,29.89,29.77,13,4,24,0.04
2014-2-23,42.1,36.4,28.9,25.0,19.5,8.0,67,52,26,29.91,29.71,8,2,19,0.00
2014-2-24,28.1,17.4,11.1,16.0,8.1,2.0,88,67,49,29.94,29.71,12,4,23,0.00
2014-2-25,18.5,10.9,3.9,8.0,3.5,0.0,87,72,57,29.96,29.86,14,3,17,0.00
2014-2-26,14.8,7.9,-2.6,6.0,-1.8,-10.0,88,66,38,29.88,29.78,9,2,17,0.00
2014-2-27,16.8,6.0,-2.3,8.0,-2.5,-11.0,88,69,45,29.91,29.57,10,3,21,0.00
2014-2-28,13.2,1.7,-9.0,-6.0,-8.7,-13.0,86,64,39,30.38,29.92,8,2,17,0.00
2014-3-1,32.9,18.9,1.1,16.0,2.1,-11.0,67,50,28,30.37,30.05,7,2,14,0.00
2014-3-2,33.3,23.1,10.5,19.0,14.3,6.0,84,70,50,30.05,29.92,9,3,15,0.00
2014-3-3,11.8,4.5,-2.9,6.0,-4.5,-9.0,85,67,45,30.30,29.95,13,4,21,0.00
2014-3-4,24.1,8.3,-5.1,6.0,-0.8,-9.0,87,69,38,30.37,30.22,6,2,11,0.00
2014-3-5,22.2,15.1,4.4,13.0,7.9,-3.0,85,73,61,30.45,30.17,7,2,13,0.00
2014-3-6,24.6,10.3,-2.6,-1.0,-7.1,-11.0,75,48,22,30.59,30.43,8,2,11,0.00
2014-3-7,39.6,21.6,5.6,21.0,9.5,-10.0,84,61,36,30.42,29.92,7,2,15,0.00
2014-3-8,40.7,31.3,22.4,28.0,22.7,11.0,86,71,52,29.91,29.75,12,3,21,0.00
2014-3-9,27.6,22.8,17.4,22.0,13.0,8.0,86,67,47,29.92,29.81,13,3,17,0.00
2014-3-10,39.7,30.5,22.4,31.0,22.6,9.0,87,73,53,29.82,29.50,9,2,18,0.00
2014-3-11,49.2,41.1,31.8,33.0,29.4,26.0,92,65,42,29.65,29.45,12,3,18,0.00
2014-3-12,40.5,34.5,17.8,37.0,30.5,16.0,98,86,64,29.65,28.99,11,2,20,0.14
2014-3-13,17.8,7.0,1.7,16.0,2.5,-2.0,94,82,61,29.99,29.08,21,8,30,0.14
2014-3-14,35.1,21.1,4.4,22.0,11.2,-1.0,86,67,53,30.12,29.82,22,3,22,0.04
2014-3-15,41.1,35.7,24.5,31.0,25.9,16.0,92,68,50,29.87,29.65,15,4,21,0.01
2014-3-16,23.7,16.1,9.4,16.0,5.0,-3.0,79,62,47,30.15,29.87,17,5,24,0.00
2014-3-17,25.4,13.3,5.1,4.0,-1.9,-8.0,68,53,27,30.11,30.02,5,2,10,0.00
2014-3-18,35.7,22.5,9.9,11.0,2.7,-4.0,62,44,23,30.25,30.11,7,2,10,0.00
2014-3-19,33.4,27.9,21.2,31.0,15.4,-6.0,97,64,24,30.23,29.82,15,5,26,0.09
2014-3-20,38.6,33.8,27.4,36.0,28.3,21.0,98,81,59,29.81,29.63,10,3,21,0.32
2014-3-21,31.4,26.1,20.6,22.0,18.7,16.0,86,74,63,30.01,29.72,16,4,23,0.00
2014-3-22,43.4,31.5,22.0,33.0,22.9,17.0,90,71,50,30.00,29.70,12,4,23,0.00
2014-3-23,27.5,21.6,9.5,22.0,12.6,3.0,85,69,51,30.06,29.89,17,5,20,0.00
2014-3-24,21.6,13.2,5.2,8.0,3.3,0.0,87,66,44,30.14,30.05,11,3,17,0.00
2014-3-25,27.6,17.5,4.1,15.0,8.2,0.0,85,68,51,30.10,29.87,10,2,15,0.00
2014-3-26,20.7,16.5,10.1,16.0,7.1,0.0,88,68,46,30.08,29.76,22,6,35,0.00
2014-3-27,36.3,22.6,7.2,16.0,8.9,4.0,87,59,33,30.33,30.09,19,4,28,0.00
2014-3-28,48.7,38.5,30.5,43.0,33.7,16.0,96,84,54,30.14,29.87,13,3,20,0.42
2014-3-29,44.0,37.9,32.8,38.0,35.1,31.0,97,90,72,30.15,29.75,7,2,16,0.80
2014-3-30,37.1,33.8,30.3,36.0,32.9,29.0,98,96,95,29.74,29.57,16,4,24,0.13
2014-3-31,41.4,31.2,26.3,33.0,27.8,25.0,97,87,69,30.07,29.69,14,5,24,0.02
2014-4-1,53.3,37.3,26.7,32.0,27.8,23.0,86,70,43,30.08,29.94,9,2,15,0.02
2014-4-2,53.7,42.4,34.9,34.0,29.8,23.0,87,63,30,30.04,29.92,9,1,13,0.00
2014-4-3,47.3,37.1,26.6,27.0,23.6,19.0,85,61,38,30.07,29.99,8,2,15,0.00
2014-4-4,36.7,33.5,30.1,31.0,28.4,25.0,97,82,66,30.02,29.72,14,5,25,0.01
2014-4-5,38.9,33.6,27.4,38.0,28.3,21.0,98,81,66,29.92,29.66,14,4,27,0.01
2014-4-6,49.5,34.8,23.1,25.0,20.3,16.0,84,59,29,30.18,29.93,13,3,24,0.01
2014-4-7,45.9,38.4,31.6,37.0,24.0,18.0,98,59,37,30.15,29.67,13,3,19,0.13
2014-4-8,54.9,43.5,34.6,49.0,39.6,32.0,99,87,65,29.67,29.28,15,4,23,0.28
2014-4-9,43.0,35.6,26.7,33.0,25.1,12.0,96,69,35,29.94,29.52,13,4,25,0.00
2014-4-10,56.2,42.5,25.3,34.0,26.2,18.0,76,55,38,30.09,29.87,13,4,21,0.00
2014-4-11,55.7,48.7,40.3,49.0,40.0,32.0,98,74,47,29.95,29.83,9,2,19,0.01
2014-4-12,59.5,46.0,32.0,42.0,34.5,29.0,99,70,33,30.15,29.93,8,2,15,0.01
2014-4-13,70.3,57.4,41.4,54.0,45.0,31.0,84,64,50,30.13,29.84,11,4,18,0.02
2014-4-14,69.7,62.6,58.0,56.0,52.2,50.0,77,69,54,29.86,29.66,18,6,29,0.05
2014-4-15,57.4,46.3,22.4,56.0,44.7,22.0,98,94,80,29.73,29.37,18,7,27,0.05
2014-4-16,31.5,23.3,16.8,22.0,15.8,13.0,96,75,49,30.56,29.74,16,4,26,0.06
2014-4-17,42.4,30.4,17.8,23.0,18.3,13.0,85,63,43,30.69,30.54,8,2,15,0.25
2014-4-18,43.1,34.2,22.8,30.0,24.8,21.0,96,70,45,30.54,30.18,6,2,12,0.32
2014-4-19,50.0,41.2,32.0,34.0,28.4,22.0,89,62,36,30.33,30.15,15,4,20,0.00
2014-4-20,55.4,41.7,27.9,29.0,24.5,21.0,83,53,30,30.43,30.23,8,2,15,0.00
2014-4-21,66.5,51.5,34.8,32.0,24.9,18.0,69,39,18,30.22,29.76,8,3,12,0.00
2014-4-22,66.1,54.9,47.0,49.0,37.0,20.0,93,55,28,29.75,29.40,9,2,15,0.01
2014-4-23,45.0,36.4,31.4,42.0,34.1,27.0,97,91,83,29.71,29.38,19,6,29,0.22
2014-4-24,46.2,35.8,27.4,27.0,18.7,14.0,84,52,28,29.98,29.71,21,6,29,0.00
2014-4-25,56.2,42.3,27.0,36.0,23.0,18.0,92,50,26,30.00,29.70,10,3,19,0.03
2014-4-26,49.9,41.2,36.2,42.0,37.3,34.0,97,87,62,29.80,29.62,11,3,16,0.03
2014-4-27,42.6,37.8,33.3,36.0,33.5,31.0,95,84,71,30.09,29.78,13,4,20,0.01
2014-4-28,53.8,42.9,31.8,37.0,32.8,30.0,96,70,43,30.09,29.98,9,3,15,0.02
2014-4-29,45.1,36.9,32.9,37.0,34.8,32.0,98,92,72,30.33,30.08,12,5,20,0.19
2014-4-30,45.2,36.7,31.5,45.0,36.3,31.0,99,98,98,30.35,29.98,17,7,25,0.30
2014-5-1,65.1,53.9,43.9,56.0,48.8,42.0,99,85,51,29.97,29.61,11,4,21,0.11
2014-5-2,54.4,46.1,35.7,41.0,36.8,34.0,97,72,50,29.77,29.62,9,2,15,0.12
2014-5-3,54.9,47.7,40.9,42.0,38.3,35.0,93,72,48,29.79,29.64,8,2,15,0.07
2014-5-4,52.0,44.0,38.2,41.0,33.6,26.0,90,68,37,29.69,29.53,17,4,26,0.07
2014-5-5,53.1,43.8,37.6,36.0,34.1,32.0,93,71,46,29.86,29.69,13,4,23,0.01
2014-5-6,52.3,43.2,33.8,35.0,30.4,27.0,86,63,40,30.04,29.83,14,2,21,0.00
2014-5-7,59.7,44.8,30.2,35.0,29.3,22.0,86,58,23,30.19,30.04,8,1,14,0.00
2014-5-8,62.4,53.1,44.5,51.0,44.3,31.0,95,72,55,30.12,30.00,4,1,8,0.00
2014-5-9,62.0,54.5,48.5,57.0,52.6,48.0,98,93,81,30.09,29.91,12,5,19,0.31
2014-5-10,70.4,61.2,55.0,60.0,55.0,43.0,99,81,57,29.90,29.70,23,3,26,0.01
2014-5-11,66.7,56.4,42.2,42.0,35.6,28.0,85,49,25,30.01,29.77,12,3,20,0.01
2014-5-12,77.5,65.7,51.8,54.0,42.1,32.0,70,44,27,30.05,29.92,13,2,17,0.00
2014-5-13,66.0,58.3,49.9,54.0,47.8,43.0,81,69,56,30.12,29.93,12,3,16,0.00
2014-5-14,72.6,60.5,47.4,59.0,52.1,42.0,98,75,54,30.16,30.07,11,3,17,0.24
2014-5-15,61.9,59.5,56.5,61.0,59.1,56.0,99,98,96,30.12,29.97,17,5,25,0.11
2014-5-16,61.6,59.8,45.9,61.0,59.2,45.0,99,97,94,29.96,29.69,17,8,38,0.68
2014-5-17,54.5,45.6,37.5,46.0,40.7,36.0,99,84,56,30.08,29.73,10,2,18,1.55
2014-5-18,52.0,43.5,33.4,38.0,33.3,27.0,96,70,45,30.15,30.08,10,2,15,0.00
2014-5-19,58.0,45.2,34.1,43.0,35.3,29.0,97,71,41,30.15,30.03,16,3,23,0.08
2014-5-20,65.8,52.3,37.0,45.0,38.0,32.0,98,64,31,30.09,29.93,14,2,18,0.08
2014-5-21,67.0,57.3,46.7,53.0,44.5,37.0,90,64,40,29.95,29.78,8,2,15,0.00
2014-5-22,61.6,55.2,50.2,58.0,53.6,49.0,98,94,82,29.79,29.68,7,1,8,0.06
2014-5-23,55.8,51.3,47.8,52.0,49.8,47.0,99,94,85,29.89,29.75,5,2,10,0.01
2014-5-24,58.7,50.7,45.5,53.0,49.3,45.0,99,95,76,30.02,29.87,8,1,11,0.10
2014-5-25,69.9,56.7,42.6,51.0,45.7,40.0,99,71,36,30.04,29.96,9,2,16,0.01
2014-5-26,75.1,64.3,53.4,54.0,50.2,46.0,80,62,41,29.98,29.79,9,2,18,0.00
2014-5-27,77.4,67.7,55.6,62.0,55.9,49.0,90,67,49,29.80,29.63,12,2,13,0.00
2014-5-28,62.5,50.9,42.5,60.0,50.1,42.0,99,97,91,30.10,29.67,7,2,11,0.00
2014-5-29,61.2,50.0,36.0,47.0,42.5,35.0,98,77,55,30.16,30.04,10,2,12,0.01
2014-5-30,63.8,53.6,48.5,53.0,47.6,43.0,94,81,57,30.04,29.95,9,3,22,0.05
2014-5-31,60.2,52.8,46.3,47.0,44.7,43.0,90,75,61,30.23,30.02,11,3,26,0.05
2014-6-1,69.1,57.0,43.3,52.0,46.0,42.0,98,70,44,30.30,30.14,9,2,12,0.00
2014-6-2,77.0,63.4,49.7,61.0,53.6,46.0,94,72,49,30.15,29.90,8,1,13,0.00
2014-6-3,76.9,66.2,58.9,68.0,62.3,57.0,98,88,69,29.92,29.70,11,1,17,0.21
2014-6-4,68.3,60.6,53.1,61.0,52.2,47.0,99,76,49,29.77,29.67,7,2,11,0.24
2014-6-5,64.5,55.4,48.3,56.0,51.0,45.0,98,86,57,29.71,29.58,7,2,13,0.27
2014-6-6,62.0,53.2,47.3,52.0,48.5,46.0,97,85,67,29.90,29.70,8,3,17,0.00
2014-6-7,72.0,59.6,46.8,55.0,50.9,46.0,98,75,48,29.95,29.85,8,2,16,0.00
2014-6-8,76.0,64.5,51.4,59.0,53.1,48.0,91,69,47,29.91,29.76,7,1,13,0.00
2014-6-9,59.1,57.6,56.5,58.0,56.6,55.0,99,96,89,29.90,29.80,4,1,9,0.02
2014-6-10,70.9,62.9,56.4,64.0,60.5,56.0,99,92,75,29.92,29.85,5,1,9,0.02
2014-6-11,62.8,55.1,52.6,60.0,54.2,50.0,99,96,86,30.04,29.92,11,3,17,0.35
2014-6-12,61.8,57.2,52.6,62.0,56.6,50.0,99,98,86,30.01,29.87,9,3,18,0.16
2014-6-13,68.5,62.4,58.8,67.0,61.9,58.0,100,98,90,29.86,29.64,10,1,12,0.07
2014-6-14,58.5,51.8,49.4,58.0,48.1,46.0,98,87,75,29.94,29.70,10,3,15,0.19
2014-6-15,67.2,56.4,49.5,56.0,51.5,48.0,97,85,64,30.06,29.93,11,2,18,0.00
2014-6-16,74.3,62.7,49.0,62.0,55.6,48.0,99,79,54,30.10,29.94,7,1,10,0.00
2014-6-17,81.0,68.4,60.1,66.0,57.9,-99.9,98,75,46,29.96,29.72,9,-10,18,0.00
2014-6-18,74.6,65.6,57.4,66.0,61.0,56.0,97,85,70,29.91,29.67,10,3,19,0.45
2014-6-19,71.6,62.1,47.2,62.0,54.7,43.0,98,79,46,29.96,29.87,9,1,14,0.04
2014-6-20,67.0,55.5,42.3,47.0,43.1,40.0,97,67,40,29.96,29.85,0,0,0,0.00
2014-6-21,67.9,55.8,42.3,50.0,44.7,39.0,90,68,46,29.93,29.82,0,0,0,0.00
2014-6-22,68.6,58.2,47.6,54.0,48.8,45.0,92,73,48,29.96,29.88,0,0,0,0.00
2014-6-23,72.8,63.2,51.5,60.0,54.1,48.0,90,73,53,30.04,29.96,0,0,0,0.00
2014-6-24,70.2,65.0,59.8,64.0,59.4,55.0,90,82,68,30.02,29.87,0,0,0,0.00
2014-6-25,77.4,68.6,62.9,68.0,64.3,61.0,98,86,71,29.88,29.72,0,0,0,0.96
2014-6-26,72.4,63.8,56.9,66.0,62.1,54.0,99,94,75,29.93,29.71,0,0,0,0.98
2014-6-27,72.9,62.2,54.0,60.0,53.5,48.0,99,76,44,30.14,29.93,0,0,0,0.00
2014-6-28,74.9,64.4,51.9,58.0,52.5,47.0,88,67,41,30.21,30.13,0,0,0,0.00
2014-6-29,75.7,66.4,54.5,64.0,59.3,50.0,94,79,60,30.16,29.98,0,0,0,0.00
2014-6-30,77.8,68.6,59.0,69.0,62.9,57.0,95,82,71,30.00,29.82,0,0,0,0.01
2014-7-1,80.3,71.9,61.8,71.0,66.8,61.0,98,84,69,29.84,29.66,0,0,0,0.00
2014-7-2,82.8,71.4,62.7,74.0,68.0,62.0,98,89,71,29.81,29.69,0,0,0,0.25
2014-7-3,78.9,69.6,61.5,72.0,66.2,61.0,99,90,67,29.85,29.76,0,0,0,0.66
2014-7-4,61.7,58.5,52.9,61.0,56.5,50.0,98,93,77,29.93,29.83,0,0,0,0.36
2014-7-5,69.7,59.4,50.1,52.0,49.0,44.0,93,71,48,30.03,29.92,0,0,0,0.00
2014-7-6,75.2,63.9,50.6,58.0,50.4,46.0,89,64,44,30.01,29.80,0,0,0,0.00
2014-7-7,76.0,69.5,63.4,70.0,60.7,49.0,96,74,57,29.80,29.59,0,0,0,0.37
2014-7-8,77.9,71.2,64.0,70.0,65.2,62.0,95,81,68,29.68,29.50,0,0,0,0.37
2014-7-9,75.6,65.3,55.6,66.0,59.6,55.0,97,83,60,29.88,29.57,0,0,0,0.30
2014-7-10,69.9,60.9,51.4,59.0,55.5,51.0,99,83,61,30.09,29.88,0,0,0,0.00
2014-7-11,72.9,61.4,51.7,57.0,52.2,49.0,95,75,44,30.15,30.09,0,0,0,0.00
2014-7-12,76.7,66.3,53.3,65.0,59.3,52.0,96,80,56,30.16,29.99,0,0,0,0.00
2014-7-13,72.1,67.3,61.1,68.0,65.1,60.0,98,92,82,29.99,29.74,0,0,0,0.35
2014-7-14,76.2,68.0,59.6,68.0,64.9,59.0,99,90,71,29.82,29.72,0,0,0,0.08
2014-7-15,74.7,67.4,62.4,69.0,65.4,62.0,99,93,78,29.72,29.62,0,0,0,0.08
2014-7-16,71.1,62.4,54.1,62.0,56.6,53.0,98,82,53,29.83,29.64,0,0,0,0.06
2014-7-17,68.4,57.5,48.4,57.0,52.4,48.0,99,84,55,30.05,29.82,0,0,0,0.03
2014-7-18,69.2,58.2,45.8,59.0,52.7,45.0,99,83,56,30.18,30.05,0,0,0,0.02
2014-7-19,68.1,60.9,53.8,59.0,55.0,52.0,97,82,61,30.19,30.11,0,0,0,0.01
2014-7-20,70.9,60.5,54.1,58.0,53.8,52.0,98,78,56,30.11,0.00,0,0,0,0.01
2014-7-21,72.2,63.6,53.0,65.0,59.4,52.0,98,87,64,30.12,30.05,0,0,0,0.01
2014-7-22,80.9,69.6,60.1,70.0,64.5,59.0,97,84,61,30.08,29.90,0,0,0,0.01
2014-7-23,83.3,71.4,62.1,71.0,66.2,62.0,98,84,61,29.90,29.63,0,0,0,0.01
2014-7-24,67.6,60.5,50.4,61.0,55.7,49.0,98,85,61,29.88,29.69,0,0,0,0.01
2014-7-25,71.9,58.3,45.9,61.0,52.9,45.0,98,84,53,29.98,29.88,0,0,0,0.01
2014-7-26,72.8,62.5,53.5,58.0,54.6,51.0,98,77,53,29.93,29.79,0,0,0,0.01
2014-7-27,78.7,66.9,59.3,67.0,61.3,55.0,97,83,56,29.81,29.56,0,0,0,0.01
2014-7-28,70.6,62.6,53.6,66.0,60.4,53.0,98,92,73,29.59,29.34,0,0,0,0.01
2014-7-29,62.0,55.3,49.4,53.0,50.6,48.0,97,85,63,29.91,29.58,0,0,0,0.01
2014-7-30,66.9,55.7,49.7,56.0,51.6,48.0,98,87,55,29.98,29.91,0,0,0,0.01
2014-7-31,69.4,59.2,52.0,61.0,55.0,51.0,96,86,66,30.08,29.96,0,0,0,0.01
2014-8-1,74.8,64.2,54.2,65.0,59.4,53.0,98,85,62,30.12,30.07,0,0,0,0.00
2014-8-2,71.0,62.7,55.1,62.0,58.2,54.0,97,86,66,30.10,30.00,0,0,0,0.00
2014-8-3,71.0,62.7,54.9,62.0,58.3,54.0,98,86,68,30.04,29.93,0,0,0,0.01
2014-8-4,73.7,64.5,58.4,64.0,60.4,57.0,98,87,66,29.98,29.93,0,0,0,0.01
2014-8-5,77.1,65.8,56.1,66.0,60.5,55.0,98,84,59,29.98,29.82,0,0,0,0.00
2014-8-6,69.8,60.8,51.0,62.0,57.6,50.0,99,90,67,29.85,29.77,0,0,0,0.00
2014-8-7,67.0,56.6,48.6,57.0,51.3,48.0,99,84,56,29.97,29.85,0,0,0,0.01
2014-8-8,70.3,57.8,47.7,58.0,52.6,47.0,99,84,58,30.05,29.97,0,0,0,0.01
2014-8-9,73.4,61.0,51.2,58.0,54.2,51.0,99,80,50,30.09,30.02,0,0,0,0.00
2014-8-10,73.6,63.3,55.1,62.0,56.5,53.0,94,80,55,30.09,30.03,0,0,0,0.00
2014-8-11,76.5,65.5,54.5,62.0,56.1,52.0,93,73,49,30.07,29.97,0,0,0,0.00
2014-8-12,64.1,61.7,58.0,62.0,58.3,53.0,97,89,73,29.99,29.79,0,0,0,0.01
2014-8-13,65.5,60.6,54.1,64.0,59.7,53.0,99,96,92,29.79,29.58,0,0,0,0.01
2014-8-14,63.5,55.1,45.4,53.0,49.2,45.0,98,82,56,29.81,29.68,0,0,0,0.00
2014-8-15,56.9,51.6,46.3,50.0,48.2,46.0,98,88,75,29.90,29.79,0,0,0,0.03
2014-8-16,65.9,56.7,45.5,54.0,49.6,45.0,98,78,59,29.93,29.82,0,0,0,0.03
2014-8-17,66.2,58.5,52.3,58.0,54.3,51.0,97,86,67,29.83,29.76,0,0,0,0.06
2014-8-18,68.1,57.8,49.7,54.0,51.2,47.0,97,81,49,29.83,29.77,0,0,0,0.06
2014-8-19,70.9,57.9,46.7,60.0,52.0,46.0,98,80,60,29.87,29.80,0,0,0,0.00
2014-8-20,72.9,64.7,54.0,66.0,60.8,53.0,99,88,73,29.91,29.86,0,0,0,0.00
2014-8-21,69.4,63.6,60.6,66.0,62.0,59.0,98,94,86,29.93,29.88,0,0,0,0.03
2014-8-22,60.9,58.9,56.5,60.0,58.0,56.0,99,97,93,30.00,29.89,0,0,0,0.06
2014-8-23,64.4,58.8,53.0,58.0,56.2,52.0,99,91,76,30.07,29.98,0,0,0,0.01
2014-8-24,69.9,59.9,51.4,60.0,56.1,51.0,99,88,65,30.12,30.06,0,0,0,0.01
2014-8-25,76.7,64.3,55.1,66.0,59.0,54.0,98,84,61,30.13,30.05,0,0,0,0.00
2014-8-26,78.6,66.7,56.5,63.0,58.3,55.0,94,76,52,30.10,29.96,0,0,0,0.00
2014-8-27,79.3,68.0,59.3,70.0,63.2,56.0,96,85,72,29.96,29.80,0,0,0,0.00
2014-8-28,65.7,57.6,49.2,57.0,52.3,47.0,96,83,59,30.00,29.77,0,0,0,0.00
2014-8-29,67.9,55.3,44.6,56.0,50.4,44.0,98,85,63,30.17,30.00,0,0,0,0.00
2014-8-30,68.8,60.1,47.2,61.0,55.4,46.0,99,85,72,30.18,30.03,0,0,0,0.00
2014-8-31,74.8,67.0,59.6,68.0,64.3,59.0,99,91,78,30.04,29.86,0,0,0,0.00
2014-9-1,79.0,69.2,62.1,70.0,64.8,62.0,99,87,64,29.92,29.81,0,0,0,0.00
2014-9-2,81.9,72.4,63.5,69.0,65.9,63.0,98,81,57,29.83,29.65,0,0,0,0.20
2014-9-3,71.6,62.0,53.6,62.0,56.0,52.0,98,82,54,30.05,29.66,0,0,0,0.35
2014-9-4,76.6,65.6,53.2,62.0,57.4,51.0,93,76,53,30.12,30.02,0,0,0,0.00
2014-9-5,79.9,69.7,61.3,70.0,64.9,59.0,97,85,66,30.05,29.87,0,0,0,0.00
2014-9-6,80.4,67.8,55.2,68.0,61.7,52.0,97,81,61,29.86,29.71,0,0,0,0.15
2014-9-7,68.4,57.8,48.8,55.0,50.0,43.0,98,78,41,30.15,29.84,0,0,0,0.15
2014-9-8,66.4,56.0,48.6,54.0,50.0,47.0,95,79,61,30.28,30.16,0,0,0,0.00
2014-9-9,63.6,55.1,43.4,56.0,51.2,42.0,98,87,68,30.24,30.09,0,0,0,0.00
2014-9-10,69.0,58.3,46.8,58.0,53.2,46.0,99,84,63,30.09,29.89,0,0,0,0.00
2014-9-11,72.3,60.9,52.1,66.0,58.6,49.0,99,92,77,29.89,29.70,0,0,0,0.04
2014-9-12,60.4,50.9,44.5,50.0,46.5,43.0,97,85,64,30.16,29.88,0,0,0,0.00
2014-9-13,51.9,47.3,39.2,52.0,46.1,38.0,99,95,89,30.16,30.04,0,0,0,0.10
2014-9-14,59.0,47.2,39.5,47.0,41.3,39.0,97,82,52,30.22,30.12,0,0,0,0.04
2014-9-15,60.2,47.9,37.8,46.0,41.5,37.0,98,81,47,30.18,30.02,0,0,0,0.01
2014-9-16,56.4,49.6,39.8,52.0,47.1,39.0,98,91,80,30.02,29.91,0,0,0,0.01
2014-9-17,59.3,47.0,36.4,48.0,41.9,36.0,99,84,57,30.01,29.92,0,0,0,0.01
2014-9-18,62.2,51.2,40.6,49.0,45.1,40.0,97,81,52,30.06,29.91,0,0,0,0.01
2014-9-19,54.1,44.3,32.7,44.0,38.5,31.0,96,81,61,30.30,30.07,0,0,0,0.01
2014-9-20,61.9,54.2,46.2,57.0,51.5,44.0,96,90,80,30.27,29.98,0,0,0,0.01
2014-9-21,74.2,62.4,50.3,62.0,55.5,49.0,97,80,55,29.98,29.50,0,0,0,0.00
2014-9-22,56.4,49.6,41.9,53.0,44.2,37.0,91,82,73,30.05,29.52,0,0,0,0.00
2014-9-23,65.1,49.5,37.8,50.0,43.4,37.0,98,81,55,30.39,30.06,0,0,0,0.01
2014-9-24,63.8,52.9,44.6,52.0,47.8,44.0,99,84,60,30.52,30.39,0,0,0,0.00
2014-9-25,59.8,51.6,45.2,50.0,47.3,44.0,98,86,63,30.44,30.20,0,0,0,0.00
2014-9-26,68.0,54.7,44.9,55.0,49.8,44.0,99,85,57,30.21,30.13,0,0,0,0.00
2014-9-27,76.5,60.2,47.2,57.0,52.8,47.0,99,79,43,30.20,30.11,0,0,0,0.00
2014-9-28,78.5,63.8,52.8,62.0,55.1,51.0,93,75,45,30.12,29.93,0,0,0,0.00
2014-9-29,72.6,60.5,53.3,58.0,53.3,46.0,95,79,40,29.93,29.82,0,0,0,0.00
2014-9-30,68.3,58.4,49.8,59.0,55.5,49.0,98,90,71,29.91,29.82,0,0,0,0.00
2014-10-1,55.4,51.8,48.4,54.0,51.2,47.0,98,95,95,30.04,29.91,0,0,0,0.02
2014-10-2,61.2,53.5,48.1,56.0,52.0,48.0,99,94,79,30.11,30.03,0,0,0,0.05
2014-10-3,63.8,54.1,43.7,51.0,48.5,43.0,99,83,56,30.05,29.73,0,0,0,0.06
2014-10-4,54.6,50.5,43.7,54.0,49.7,43.0,99,97,91,29.72,29.44,0,0,0,0.03
2014-10-5,52.8,40.7,29.3,41.0,32.9,28.0,97,76,42,29.91,29.56,0,0,0,0.01
2014-10-6,58.1,46.6,30.5,48.0,39.0,29.0,95,76,53,30.00,29.91,0,0,0,0.09
2014-10-7,60.7,54.2,50.3,52.0,48.5,46.0,96,82,61,29.97,29.76,0,0,0,0.01
2014-10-8,60.3,53.7,44.0,54.0,45.1,33.0,97,74,49,29.82,29.60,0,0,0,0.01
2014-10-9,57.7,47.0,36.2,39.0,35.1,32.0,86,65,44,29.97,29.80,0,0,0,0.02
2014-10-10,54.6,43.5,33.9,37.0,35.1,32.0,97,75,47,30.08,29.96,0,0,0,0.00
2014-10-11,51.8,43.1,35.7,43.0,37.8,33.0,91,80,62,30.12,29.99,0,0,0,0.00
2014-10-12,56.3,40.4,28.9,41.0,34.6,28.0,98,82,50,30.26,30.12,0,0,0,0.38
2014-10-13,55.4,48.8,34.7,54.0,45.7,32.0,97,89,77,30.25,30.16,0,0,0,0.00
2014-10-14,64.7,61.6,54.9,60.0,58.6,54.0,97,90,84,30.16,29.97,0,0,0,0.00
2014-10-15,68.5,43.8,61.4,63.0,42.7,59.0,98,66,83,29.97,29.74,0,0,0,0.34
2014-10-16,63.6,55.8,48.6,63.0,54.7,48.0,99,90,82,29.74,29.52,0,0,0,0.12
2014-10-17,61.6,53.4,48.1,50.0,48.0,46.0,98,83,59,29.61,29.54,0,0,0,0.01
2014-10-18,56.6,49.8,42.4,51.0,46.3,40.0,95,88,71,29.60,29.46,0,0,0,0.02
2014-10-19,42.2,34.4,28.1,40.0,29.9,25.0,97,82,69,29.97,29.60,0,0,0,0.00
2014-10-20,48.0,38.0,26.0,39.0,32.2,25.0,96,81,58,30.03,29.91,0,0,0,0.13
2014-10-21,48.5,43.4,42.1,47.0,42.1,39.0,98,90,82,29.92,29.83,0,0,0,0.02
2014-10-22,45.5,39.2,41.6,45.0,38.9,41.0,99,89,97,29.98,29.82,0,0,0,0.01
2014-10-23,42.3,37.7,40.1,42.0,37.1,40.0,99,88,96,29.84,29.70,0,0,0,0.01
2014-10-24,47.0,37.2,36.0,46.0,36.7,35.0,99,88,91,29.83,29.72,0,0,0,0.00
2014-10-25,56.9,44.7,34.5,46.0,39.5,33.0,97,81,59,29.82,29.51,0,0,0,0.00
2014-10-26,45.6,39.2,37.8,43.0,37.1,36.0,97,89,82,29.73,29.43,0,0,0,0.00
2014-10-27,52.7,40.7,37.1,39.0,35.3,34.0,96,77,53,29.97,29.73,0,0,0,0.00
2014-10-28,67.9,34.9,38.1,51.0,27.9,35.0,87,43,45,29.97,29.81,0,0,0,0.00
2014-10-29,64.5,48.3,35.2,55.0,44.2,35.0,98,82,60,29.82,29.72,0,0,0,0.00
2014-10-30,44.5,37.2,30.0,39.0,34.4,29.0,98,87,75,29.97,29.82,0,0,0,0.00
2014-10-31,44.2,34.9,28.0,36.0,30.6,27.0,97,82,67,29.98,29.89,0,0,0,0.21
2014-11-1,38.8,33.6,29.8,35.0,30.6,29.0,97,86,70,29.90,29.80,0,0,0,0.01
2014-11-2,33.3,27.2,27.7,29.0,22.1,18.0,97,74,61,29.95,29.79,0,0,0,0.42
2014-11-3,49.0,37.5,28.4,32.0,24.7,16.0,86,61,32,30.07,29.90,0,0,0,0.66
2014-11-4,59.7,50.2,41.1,39.0,27.4,18.0,61,40,23,30.07,29.90,0,0,0,0.01
2014-11-5,57.0,46.3,38.8,43.0,28.8,19.0,78,48,24,30.03,29.86,0,0,0,0.02
2014-11-6,42.3,37.6,36.5,40.0,33.6,30.0,98,81,67,30.02,29.50,0,0,0,0.01
2014-11-7,36.5,29.4,27.6,36.0,26.9,22.0,98,81,79,29.81,29.50,0,0,0,0.01
2014-11-8,39.7,31.0,25.8,26.0,22.4,20.0,84,66,51,29.94,29.80,0,0,0,0.15
2014-11-9,43.5,34.8,29.9,33.0,27.1,26.0,86,68,63,29.95,29.79,0,0,0,0.02
2014-11-10,53.0,40.6,31.4,34.0,29.6,27.0,84,62,46,30.10,29.95,0,0,0,0.02
2014-11-11,55.2,47.7,41.3,48.0,41.0,31.0,91,75,58,30.05,29.83,0,0,0,0.00
2014-11-12,56.2,42.4,28.5,50.0,37.9,25.0,95,80,74,29.98,29.78,0,0,0,0.00
2014-11-13,34.2,28.0,24.2,27.0,22.8,21.0,96,76,65,30.02,29.91,0,0,0,0.00
2014-11-14,29.4,23.2,20.7,25.0,18.9,17.0,96,78,64,30.08,29.89,0,0,0,0.06
2014-11-15,28.9,21.0,17.7,19.0,15.4,14.0,91,74,61,30.30,30.08,0,0,0,0.06
2014-11-16,31.2,24.8,18.1,24.0,18.7,15.0,87,71,65,30.30,30.03,0,0,0,0.00
2014-11-17,41.4,29.4,29.5,41.0,28.2,23.0,98,78,73,30.02,29.41,0,0,0,0.56
2014-11-18,31.4,17.8,11.8,29.0,9.3,2.0,93,63,52,29.89,29.47,0,0,0,0.56
2014-11-19,25.2,16.2,9.6,13.0,5.9,3.0,87,60,42,30.14,29.89,0,0,0,0.00
2014-11-20,30.3,22.8,17.3,21.0,13.5,7.0,86,63,54,29.93,29.76,0,0,0,0.00
2014-11-21,21.1,15.6,11.8,15.0,8.1,3.0,82,67,59,30.39,29.89,0,0,0,0.00
2014-11-22,44.3,29.0,13.0,41.0,16.6,-3.0,89,60,16,30.39,30.05,0,0,0,0.11
2014-11-23,53.2,42.2,41.1,43.0,35.1,31.0,89,68,57,30.08,29.90,0,0,0,0.15
2014-11-24,59.4,49.8,43.9,56.0,46.3,41.0,98,80,77,29.90,29.41,0,0,0,0.35
2014-11-25,56.1,40.8,32.4,50.0,26.0,23.0,80,51,39,30.04,29.60,0,0,0,0.05
2014-11-26,31.2,23.6,24.9,28.0,21.8,24.0,96,79,80,30.11,29.80,0,0,0,0.05
2014-11-27,26.8,22.0,20.5,25.0,20.7,19.0,96,85,92,29.98,29.81,0,0,0,0.00
2014-11-28,23.0,16.4,10.3,20.0,13.0,7.0,94,79,76,30.18,29.96,0,0,0,0.00
2014-11-29,29.6,18.0,8.7,25.0,13.6,6.0,91,77,67,30.28,30.11,0,0,0,0.00
2014-11-30,46.7,36.6,28.9,43.0,32.7,24.0,91,78,76,30.12,29.96,0,0,0,0.10
2014-12-1,51.4,35.9,24.7,46.0,32.2,18.0,96,79,75,30.36,29.95,0,0,0,0.10
2014-12-2,28.7,22.0,18.0,28.0,18.4,14.0,97,77,72,30.57,30.28,0,0,0,0.00
2014-12-3,46.0,33.2,27.6,43.0,30.1,20.0,99,79,72,30.27,29.85,0,0,0,0.14
2014-12-4,28.6,22.1,17.7,22.0,16.0,15.0,89,68,65,30.47,30.06,0,0,0,0.00
2014-12-5,33.4,23.7,15.4,33.0,21.3,14.0,98,82,73,30.55,30.32,0,0,0,0.00
2014-12-6,35.7,28.5,28.8,35.0,28.2,28.0,99,84,98,30.31,30.07,0,0,0,0.27
2014-12-7,28.5,19.1,10.1,28.0,15.1,4.0,97,74,59,30.61,30.22,0,0,0,0.03
2014-12-8,25.1,15.5,8.7,24.0,10.5,-5.0,97,75,44,30.63,30.39,0,0,0,0.03
2014-12-9,31.8,24.6,24.8,31.0,24.1,24.0,98,81,96,30.37,29.64,0,0,0,0.00
2014-12-10,31.4,22.1,20.3,31.0,21.6,19.0,98,85,96,29.64,29.48,0,0,0,0.00
2014-12-11,22.5,18.7,18.8,22.0,18.0,18.0,96,87,95,29.80,29.49,0,0,0,0.00
2014-12-12,22.0,18.5,18.9,21.0,17.6,18.0,96,85,95,29.95,29.78,0,0,0,0.00
2014-12-13,27.2,20.9,21.9,27.0,20.3,21.0,98,82,96,29.95,29.84,0,0,0,0.06
2014-12-14,30.2,23.3,27.2,30.0,22.9,27.0,99,80,98,29.93,29.81,0,0,0,0.00
2014-12-15,32.8,25.6,25.0,32.0,25.2,24.0,99,88,97,30.05,29.91,0,0,0,0.05
2014-12-16,36.2,29.0,22.7,36.0,28.8,22.0,99,91,96,30.03,29.81,0,0,0,0.01
2014-12-17,36.9,29.7,28.2,37.0,29.0,27.0,99,86,92,29.80,29.72,0,0,0,0.06
2014-12-18,28.2,23.0,23.9,27.0,21.7,23.0,96,85,89,29.89,29.73,0,0,0,0.00
2014-12-19,23.9,18.3,18.3,23.0,17.0,17.0,96,84,90,30.13,29.87,0,0,0,0.00
2014-12-20,22.2,17.5,15.6,22.0,16.7,14.0,97,85,94,30.26,30.13,0,0,0,0.00
2014-12-21,24.1,20.2,20.9,23.0,19.5,20.0,97,85,96,30.31,30.23,0,0,0,0.00
2014-12-22,32.1,26.0,23.4,32.0,25.7,23.0,99,88,97,30.30,30.16,0,0,0,0.00
2014-12-23,39.3,31.5,32.0,39.0,31.3,32.0,100,89,99,30.17,30.04,0,0,0,0.10
2014-12-24,51.4,37.9,38.2,51.0,37.9,38.0,100,88,99,30.03,29.41,0,0,0,0.22
2014-12-25,53.3,34.9,32.9,53.0,29.9,28.0,100,70,69,29.95,29.38,0,0,0,0.25
2014-12-26,40.2,29.9,27.9,29.0,25.1,25.0,88,73,63,30.17,29.96,0,0,0,0.00
2014-12-27,45.6,33.8,28.6,37.0,29.5,26.0,92,77,71,30.20,29.94,0,0,0,0.00
2014-12-28,46.1,32.2,26.1,38.0,28.0,21.0,97,76,49,29.96,29.75,0,0,0,0.06
2014-12-29,28.1,21.5,15.0,23.0,17.5,11.0,88,75,77,30.18,29.96,0,0,0,0.00
2014-12-30,19.3,12.0,6.7,11.0,7.6,4.0,91,74,66,30.32,30.17,0,0,0,0.00
2014-12-31,19.8,12.8,9.0,10.0,4.1,0.0,86,61,51,30.26,30.03,0,0,0,0.00
2015-1-1,26.6,18.9,13.0,13.0,6.6,3.0,68,53,47,30.02,29.84,0,0,0,0.00
2015-1-2,26.1,21.4,21.5,22.0,14.4,13.0,91,64,58,30.37,29.88,0,0,0,0.00